This demonstration page uses our WeatherBlox Daily Observations layout. Learn more.

Left ArrowRight Arrow

Hourly Observations for February 15, 2017

Temp ( °F °C ) Dew Point ( °F °C ) Humidity (%) Winds ( mph kmh ) Pressure ( in mb ) Visibility ( mi km ) Precip ( " mm )
12:53 am 00:53 Clear 38 3.3 29 -1.7 70 70 SW 17 28 29.91 1013 10 16 0.00 0.00
1:53 am 01:53 Clear 37 2.8 28 -2.2 70 70 W 15 24 29.90 1013 10 16 0.00 0.00
2:53 am 02:53 Clear 37 2.8 28 -2.2 70 70 W 14 22 29.89 1012 10 16 0.00 0.00
3:53 am 03:53 Clear 35 1.7 28 -2.2 76 76 SW 17 28 29.86 1011 10 16 0.00 0.00
4:53 am 04:53 Clear 37 2.8 28 -2.2 70 70 SW 15 24 29.84 1011 10 16 0.00 0.00
5:53 am 05:53 Clear 35 1.7 28 -2.2 76 76 SW 14 22 29.85 1011 10 16 0.00 0.00
6:53 am 06:53 Clear 35 1.7 27 -2.8 72 72 SW 12 19 29.84 1011 10 16 0.00 0.00
7:53 am 07:53 Sunny 43 6.1 26 -3.3 51 51 SW 20 31 29.82 1010 10 16 0.00 0.00
8:53 am 08:53 Sunny 44 6.7 28 -2.2 53 53 WSW 13 20 29.82 1010 10 16 0.00 0.00
9:53 am 09:53 Sunny 46 7.8 28 -2.2 50 50 SW 21 33 29.79 1009 10 16 0.00 0.00
10:53 am 10:53 Sunny 50 10 29 -1.7 44 44 SW 22 35 29.76 1008 10 16 0.00 0.00
11:53 am 11:53 Sunny 53 11.7 31 -0.6 43 43 SW 23 37 29.75 1007 10 16 0.00 0.00
12:53 pm 12:53 Sunny 56 13.3 34 1.1 44 44 SW 20 31 29.70 1006 10 16 0.00 0.00
1:53 pm 13:53 Sunny 57 13.9 36 2.2 45 45 WSW 16 26 29.69 1006 10 16 0.00 0.00
2:53 pm 14:53 Sunny 53 11.7 37 2.8 55 55 WSW 20 31 29.68 1005 10 16 0.00 0.00
3:53 pm 15:53 Sunny 53 11.7 36 2.2 52 52 WSW 28 44 29.67 1005 10 16 0.00 0.00
4:53 pm 16:53 Sunny 49 9.4 35 1.7 59 59 WSW 22 35 29.68 1005 10 16 0.00 0.00
5:53 pm 17:53 Clear 47 8.3 32 0 56 56 WSW 22 35 29.70 1006 10 16 0.00 0.00
6:53 pm 18:53 Clear 45 7.2 32 0 61 61 SW 23 37 29.71 1006 10 16 0.00 0.00
7:53 pm 19:53 Clear 44 6.7 30 -1.1 58 58 SW 16 26 29.72 1006 10 16 0.00 0.00
8:53 pm 20:53 Clear 46 7.8 30 -1.1 54 54 SW 15 24 29.70 1006 10 16 0.00 0.00
9:53 pm 21:53 Clear 45 7.2 30 -1.1 56 56 SW 18 30 29.65 1004 10 16 0.00 0.00
10:53 pm 22:53 Clear 46 7.8 28 -2.2 50 50 WSW 7 11 29.63 1003 10 16 0.00 0.00
11:53 pm 23:53 Clear 40 4.4 29 -1.7 65 65 W 8 13 29.62 1003 10 16 0.00 0.00

Powered by AerisWeather